Home > Weather > Landshut > Past weeks

Flag for Germany Weather for the Past 2 Weeks in Landshut, Bavaria, Germany

Now
39 °F

Sunny.


Feels Like: 35 °F
Forecast: 33 / 42 °F
Wind: 6 mph from South

Location: Munich / Franz Josef Strauss Airport

Current Time: Feb 14, 2016 at 9:31:18 AM

Latest Report: Feb 14, 2016 at 8:50 AM


Visibility: 10 mi

Pressure: 29.21 "Hg

Humidity: 75%

Dew point: 32 °F

Location of LandshutLocation

Historic Weather in Landshut — Graph

°F

Landshut Temperature Yesterday

Maximum temperature yesterday: 46 °F (at 2:20 PM)
Minimum temperature yesterday: 32 °F (at 12:20 AM)
Average temperature yesterday: 39 °F

High & Low Weather Summary for the Past Weeks

 TemperatureHumidityPressure
High57 °F (Feb 1, 2:50 PM)100% (Jan 30, 8:20 AM)30.39 "Hg (Jan 30, 8:20 AM)
Low23 °F (Feb 12, 2:20 AM)47% (Feb 8, 5:20 PM)29.18 "Hg (Feb 13, 11:20 PM)
Average41 °F82%29.84 "Hg
* Reported Jan 30 8:20 AM — Feb 14 8:20 AM, Landshut, Weather by CustomWeather, © 2016

Note: Actual official high and low records may vary slightly from our data, if they occured in-between our weather recording intervals... More about our weather records

Advertising

Landshut Weather History for the Previous 24 Hours

 ConditionsComfort  
Time TempWeatherWind HumidityBarometerVisibility
8:20 AM
Sun, Feb 14
37 °FSunny.8 mph81%29.21 "Hg10 mi
7:50 AM37 °FSunny.8 mph81%29.18 "Hg10 mi
7:20 AM41 °FClear.10 mph70%29.21 "Hg10 mi
6:50 AM43 °FClear.10 mph71%29.18 "Hg10 mi
6:20 AM41 °FClear.10 mph76%29.21 "Hg10 mi
5:50 AM43 °FClear.10 mph76%29.21 "Hg10 mi
5:20 AM43 °FClear.14 mph76%29.18 "Hg10 mi
4:50 AM43 °FClear.9 mph76%29.21 "Hg10 mi
4:20 AM41 °FClear.9 mph81%29.21 "Hg10 mi
3:50 AM45 °FClear.21 mph71%29.21 "Hg10 mi
3:20 AM45 °FPartly cloudy.21 mph76%29.21 "HgN/A
2:20 AM45 °FLight rain. Partly cloudy.20 mph76%29.21 "HgN/A
1:50 AM45 °FLight rain. Partly cloudy.21 mph76%29.21 "HgN/A
1:20 AM45 °FLight rain. Partly cloudy.30 mph76%29.18 "HgN/A
12:50 AM45 °FSprinkles. Partly cloudy.16 mph76%29.21 "HgN/A
12:20 AM43 °FPartly cloudy.12 mph76%29.18 "HgN/A
11:50 PM
Sat, Feb 13
43 °FPartly cloudy.7 mph81%29.18 "HgN/A
11:20 PM43 °FPartly cloudy.8 mph81%29.18 "HgN/A
10:50 PM43 °FPartly cloudy.12 mph81%29.21 "HgN/A
10:20 PM43 °FLight rain. Partly cloudy.10 mph81%29.21 "HgN/A
9:50 PM41 °FLight rain. Partly cloudy.6 mph93%29.21 "HgN/A
9:20 PM41 °FPartly cloudy.6 mph93%29.21 "HgN/A
8:50 PM41 °FLight rain. Partly cloudy.8 mph93%29.21 "HgN/A
8:20 PM41 °FLight rain. Passing clouds.7 mph93%29.24 "HgN/A
7:50 PM41 °FLight rain. Passing clouds.5 mph93%29.24 "HgN/A
7:20 PM41 °FPassing clouds.5 mph93%29.21 "HgN/A
6:50 PM41 °FPassing clouds.8 mph87%29.21 "HgN/A
6:20 PM41 °FLight rain. Partly cloudy.5 mph93%29.21 "HgN/A
5:50 PM43 °FLight rain. Partly cloudy.7 mph87%29.24 "HgN/A
5:20 PM43 °FLight rain. Broken clouds.9 mph87%29.24 "HgN/A
4:50 PM45 °FLight rain. Partly sunny.8 mph76%29.24 "HgN/A
4:20 PM45 °FBroken clouds.6 mph76%29.24 "HgN/A
3:50 PM45 °FBroken clouds.3 mph71%29.27 "HgN/A
3:20 PM45 °FBroken clouds.5 mph71%29.27 "HgN/A
2:50 PM45 °FBroken clouds.5 mph71%29.27 "HgN/A
2:20 PM46 °FBroken clouds.5 mph66%29.27 "HgN/A
1:50 PM45 °FBroken clouds.6 mph71%29.30 "HgN/A
1:20 PM45 °FBroken clouds.6 mph71%29.30 "HgN/A
12:50 PM41 °FPartly sunny.7 mph87%29.33 "HgN/A
12:20 PM41 °FPartly sunny.7 mph87%29.33 "HgN/A
11:50 AM41 °FPartly sunny.9 mph81%29.36 "HgN/A
11:20 AM41 °FPartly sunny.10 mph87%29.36 "HgN/A
10:50 AM41 °FPartly sunny.10 mph81%29.36 "HgN/A
10:20 AM39 °FPartly sunny.7 mph93%29.36 "HgN/A
9:50 AM39 °FBroken clouds.8 mph93%29.36 "HgN/A
9:20 AM37 °FBroken clouds.9 mph93%29.36 "HgN/A
Weather by CustomWeather, © 2016

See weather overviewHow to use our weather pages